• In Hungary
  • List of Countries
  • For 7 days
  • Water Temperature
  • Satellite Maps
  • Weather Map
  • News
  • Weather Widgets
  • user-avatar
    Login

    Hourly Weather Kadamovskiy

    Today, 17 December, Sunday

    Time Temperature Precipitation Wind Pressure Humidity
    00:00 +4°C° 0 mm 7 mps 760 mmHg 86%
    01:00 +4°C° 0 mm 6 mps 760 mmHg 88%
    02:00 +4°C° 0 mm 6 mps 760 mmHg 89%
    03:00 +3°C° 0 mm 6 mps 760 mmHg 90%
    04:00 +3°C° 0 mm 6 mps 760 mmHg 90%
    05:00 +3°C° 0 mm 6 mps 760 mmHg 90%
    06:00 +3°C° 0 mm 6 mps 760 mmHg 90%
    07:00 +3°C° 0 mm 6 mps 760 mmHg 89%
    08:00 +3°C° 0 mm 6 mps 760 mmHg 89%
    09:00 +3°C° 0 mm 6 mps 760 mmHg 88%
    10:00 +4°C° 0 mm 6 mps 760 mmHg 83%
    11:00 +5°C° 0 mm 6 mps 760 mmHg 79%
    12:00 +7°C° 0 mm 6 mps 760 mmHg 74%
    13:00 +7°C° 0 mm 6 mps 760 mmHg 73%
    14:00 +8°C° 0 mm 5 mps 760 mmHg 72%
    15:00 +8°C° 0 mm 5 mps 760 mmHg 71%
    16:00 +7°C° 0 mm 5 mps 760 mmHg 74%
    17:00 +7°C° 0 mm 5 mps 760 mmHg 76%
    18:00 +6°C° 0 mm 5 mps 760 mmHg 79%
    19:00 +6°C° 0 mm 5 mps 760 mmHg 80%
    20:00 +5°C° 0 mm 6 mps 760 mmHg 81%
    21:00 +5°C° 0 mm 6 mps 760 mmHg 82%
    22:00 +5°C° 0 mm 6 mps 760 mmHg 82%
    23:00 +5°C° 0 mm 6 mps 760 mmHg 83%

    Tomorrow, 18 December, Monday

    Time Temperature Precipitation Wind Pressure Humidity
    00:00 +5°C° 0 mm 6 mps 759 mmHg 83%
    01:00 +5°C° 0.1 mm 6 mps 759 mmHg 84%
    02:00 +5°C° 0.1 mm 6 mps 759 mmHg 84%
    03:00 +5°C° 0.1 mm 6 mps 759 mmHg 84%
    04:00 +5°C° 0.1 mm 6 mps 759 mmHg 85%
    05:00 +5°C° 0.1 mm 6 mps 759 mmHg 85%
    06:00 +4°C° 0.1 mm 6 mps 758 mmHg 85%
    07:00 +5°C° 0.1 mm 6 mps 758 mmHg 85%
    08:00 +5°C° 0.1 mm 7 mps 758 mmHg 85%
    09:00 +5°C° 0.1 mm 7 mps 758 mmHg 85%
    10:00 +5°C° 0.2 mm 7 mps 758 mmHg 84%
    11:00 +6°C° 0.2 mm 7 mps 758 mmHg 82%
    12:00 +6°C° 0.2 mm 7 mps 758 mmHg 80%
    13:00 +8°C° 0.2 mm 7 mps 758 mmHg 79%
    14:00 +8°C° 0.2 mm 7 mps 758 mmHg 77%
    15:00 +8°C° 0.2 mm 7 mps 757 mmHg 76%
    16:00 +8°C° 0 mm 6 mps 758 mmHg 76%
    17:00 +8°C° 0 mm 6 mps 758 mmHg 76%
    18:00 +8°C° 0 mm 6 mps 758 mmHg 76%
    19:00 +8°C° 0.1 mm 5 mps 758 mmHg 79%
    20:00 +7°C° 0.1 mm 5 mps 758 mmHg 82%
    21:00 +7°C° 0.1 mm 4 mps 759 mmHg 85%
    22:00 +7°C° 0.6 mm 4 mps 759 mmHg 87%
    23:00 +8°C° 0.6 mm 3 mps 759 mmHg 89%

    Day after tomorrow, 19 December, Tuesday

    Time Temperature Precipitation Wind Pressure Humidity
    00:00 +7°C° 0.6 mm 2 mps 759 mmHg 91%
    01:00 +7°C° 0.3 mm 2 mps 759 mmHg 90%
    02:00 +7°C° 0.3 mm 2 mps 759 mmHg 89%
    03:00 +7°C° 0.3 mm 2 mps 760 mmHg 88%
    04:00 +7°C° 0.9 mm 2 mps 760 mmHg 89%
    05:00 +6°C° 0.9 mm 2 mps 760 mmHg 89%
    06:00 +6°C° 0.9 mm 2 mps 760 mmHg 90%
    07:00 +6°C° 0.8 mm 2 mps 760 mmHg 90%
    08:00 +6°C° 0.8 mm 2 mps 760 mmHg 90%
    09:00 +6°C° 0.8 mm 2 mps 761 mmHg 90%
    10:00 +6°C° 0.1 mm 2 mps 761 mmHg 85%
    11:00 +6°C° 0.1 mm 2 mps 761 mmHg 81%
    12:00 +5°C° 0.1 mm 3 mps 761 mmHg 77%
    13:00 +5°C° 0 mm 3 mps 762 mmHg 75%
    14:00 +6°C° 0 mm 2 mps 762 mmHg 73%
    15:00 +6°C° 0 mm 2 mps 762 mmHg 70%
    16:00 +6°C° 0 mm 2 mps 762 mmHg 73%
    17:00 +5°C° 0 mm 2 mps 763 mmHg 75%
    18:00 +4°C° 0 mm 2 mps 763 mmHg 78%
    19:00 +4°C° 0 mm 2 mps 763 mmHg 79%
    20:00 +3°C° 0 mm 2 mps 764 mmHg 80%
    21:00 +4°C° 0 mm 1 mps 764 mmHg 82%
    22:00 +4°C° 0 mm 1 mps 764 mmHg 82%
    23:00 +3°C° 0 mm 1 mps 765 mmHg 82%

    20 December, Wednesday

    Time Temperature Precipitation Wind Pressure Humidity
    00:00 +3°C° 0 mm 1 mps 765 mmHg 82%
    01:00 +3°C° 0.1 mm 1 mps 765 mmHg 81%
    02:00 +3°C° 0.1 mm 1 mps 765 mmHg 81%
    03:00 +3°C° 0.1 mm 1 mps 765 mmHg 80%
    04:00 +3°C° 0.1 mm 1 mps 765 mmHg 80%
    05:00 +3°C° 0.1 mm 1 mps 765 mmHg 80%
    06:00 +2°C° 0.1 mm 2 mps 765 mmHg 80%
    07:00 +2°C° 0.1 mm 2 mps 766 mmHg 81%
    08:00 +2°C° 0.1 mm 2 mps 766 mmHg 82%
    09:00 +3°C° 0.1 mm 2 mps 766 mmHg 83%
    10:00 +3°C° 0.2 mm 2 mps 766 mmHg 82%
    11:00 +4°C° 0.2 mm 2 mps 766 mmHg 81%
    12:00 +4°C° 0.2 mm 2 mps 766 mmHg 81%
    13:00 +4°C° 0 mm 2 mps 766 mmHg 81%
    14:00 +3°C° 0 mm 3 mps 766 mmHg 82%
    15:00 +4°C° 0 mm 3 mps 765 mmHg 83%
    16:00 +4°C° 0 mm 3 mps 766 mmHg 85%
    17:00 +3°C° 0 mm 3 mps 766 mmHg 87%
    18:00 +3°C° 0 mm 3 mps 766 mmHg 89%
    19:00 +4°C° 0.3 mm 3 mps 766 mmHg 91%
    20:00 +4°C° 0.3 mm 3 mps 766 mmHg 92%
    21:00 +4°C° 0.3 mm 3 mps 766 mmHg 94%
    22:00 +4°C° 0.6 mm 3 mps 766 mmHg 94%
    23:00 +4°C° 0.6 mm 4 mps 766 mmHg 94%

    21 December, Thursday

    Time Temperature Precipitation Wind Pressure Humidity
    00:00 +4°C° 0.6 mm 4 mps 765 mmHg 95%
    01:00 +4°C° 0.6 mm 4 mps 765 mmHg 94%
    02:00 +4°C° 0.6 mm 4 mps 765 mmHg 94%
    03:00 +4°C° 0.6 mm 4 mps 765 mmHg 94%
    04:00 +4°C° 0.3 mm 4 mps 765 mmHg 93%
    05:00 +4°C° 0.3 mm 4 mps 764 mmHg 92%
    06:00 +4°C° 0.3 mm 4 mps 764 mmHg 91%
    07:00 +4°C° 0.1 mm 4 mps 764 mmHg 91%
    08:00 +3°C° 0.1 mm 5 mps 764 mmHg 90%
    09:00 +3°C° 0.1 mm 5 mps 764 mmHg 90%
    10:00 +3°C° 0.4 mm 5 mps 764 mmHg 89%
    11:00 +3°C° 0.4 mm 5 mps 763 mmHg 89%
    12:00 +5°C° 0.4 mm 5 mps 763 mmHg 88%
    13:00 +5°C° 0.5 mm 5 mps 763 mmHg 89%
    14:00 +5°C° 0.5 mm 5 mps 762 mmHg 90%
    15:00 +5°C° 0.5 mm 5 mps 762 mmHg 90%
    16:00 +5°C° 0.2 mm 5 mps 762 mmHg 88%
    17:00 +3°C° 0.2 mm 6 mps 762 mmHg 86%
    18:00 +2°C° 0.2 mm 6 mps 763 mmHg 83%
    19:00 +2°C° 0 mm 5 mps 763 mmHg 82%
    20:00 +1°C° 0 mm 5 mps 763 mmHg 82%
    21:00 0°C° 0 mm 4 mps 763 mmHg 81%
    22:00 0°C° 0 mm 4 mps 763 mmHg 80%
    23:00 0°C° 0 mm 4 mps 763 mmHg 80%

    22 December, Friday

    Time Temperature Precipitation Wind Pressure Humidity
    00:00 0°C° 0 mm 4 mps 763 mmHg 80%
    01:00 0°C° 0 mm 3 mps 763 mmHg 78%
    02:00 0°C° 0 mm 3 mps 763 mmHg 77%
    03:00 0°C° 0 mm 3 mps 763 mmHg 75%
    04:00 +1°C° 0 mm 2 mps 762 mmHg 75%
    05:00 -1°C° 0 mm 2 mps 762 mmHg 75%
    06:00 -1°C° 0 mm 2 mps 762 mmHg 75%
    07:00 -1°C° 0 mm 2 mps 762 mmHg 74%
    08:00 -1°C° 0 mm 3 mps 762 mmHg 74%
    09:00 -2°C° 0 mm 3 mps 762 mmHg 73%
    10:00 -1°C° 0 mm 3 mps 762 mmHg 70%
    11:00 -1°C° 0 mm 3 mps 762 mmHg 66%
    12:00 -2°C° 0 mm 4 mps 762 mmHg 63%
    13:00 -2°C° 0 mm 4 mps 762 mmHg 62%
    14:00 -2°C° 0 mm 4 mps 762 mmHg 62%
    15:00 -2°C° 0 mm 4 mps 762 mmHg 61%
    16:00 -2°C° 0 mm 4 mps 762 mmHg 62%
    17:00 -1°C° 0 mm 3 mps 762 mmHg 62%
    18:00 -1°C° 0 mm 3 mps 762 mmHg 63%
    19:00 -1°C° 0 mm 3 mps 762 mmHg 65%
    20:00 -1°C° 0 mm 2 mps 762 mmHg 68%
    21:00 -2°C° 0 mm 2 mps 762 mmHg 70%
    22:00 -2°C° 0 mm 2 mps 761 mmHg 71%
    23:00 -2°C° 0 mm 2 mps 761 mmHg 73%
    Show more